| time (UTC) | temp F | wind direction | speed MPH | gust MPH | rain 1hr in | rain 24hr in | rain mn in | humidity % | barometer mb |
| 20260503070814 | 44 | 267 | 5.0 | 7.0 | 0.00 | 0.00 | 0.00 | 56 | 1016.8 |
| 20260503070307 | 44 | 273 | 5.0 | 8.0 | 0.00 | 0.00 | 0.00 | 57 | 1016.8 |
| 20260503060305 | 44 | 281 | 3.0 | 8.0 | 0.00 | 0.00 | 0.00 | 54 | 1015.8 |
| 20260503050805 | 48 | 239 | 2.0 | 6.0 | 0.00 | 0.00 | 0.00 | 50 | 1014.7 |
| 20260503050306 | 48 | 263 | 2.0 | 12.0 | 0.00 | 0.00 | 0.00 | 50 | 1014.6 |
| 20260503040805 | 50 | 346 | 4.0 | 9.0 | 0.00 | 0.00 | 0.00 | 49 | 1013.3 |
| 20260503040304 | 50 | 299 | 6.0 | 12.0 | 0.00 | 0.00 | 0.00 | 48 | 1013.3 |
| 20260503030807 | 52 | 287 | 5.0 | 7.0 | 0.00 | 0.00 | 0.00 | 46 | 1013.1 |
| 20260503030305 | 52 | 284 | 5.0 | 8.0 | 0.00 | 0.00 | 0.00 | 46 | 1013.2 |
| 20260503020805 | 53 | 326 | 3.0 | 8.0 | 0.00 | 0.00 | 0.00 | 46 | 1013.1 |
| 20260503020305 | 54 | 301 | 3.0 | 7.0 | 0.00 | 0.00 | 0.00 | 46 | 1013.0 |
| 20260503000806 | 57 | 314 | 2.0 | 9.0 | 0.00 | 0.00 | 0.00 | 43 | 1012.1 |
| 20260503000306 | 57 | 308 | 1.0 | 7.0 | 0.00 | 0.00 | 0.00 | 43 | 1012.0 |
| 20260502230805 | 57 | 330 | 1.0 | 5.0 | 0.00 | 0.00 | 0.00 | 43 | 1012.5 |
| 20260502230305 | 57 | 329 | 3.0 | 8.0 | 0.00 | 0.00 | 0.00 | 43 | 1012.3 |
| 20260502220804 | 57 | 316 | 3.0 | 7.0 | 0.00 | 0.00 | 0.00 | 43 | 1011.6 |
| 20260502210804 | 58 | 314 | 2.0 | 7.0 | 0.00 | 0.00 | 0.00 | 42 | 1011.3 |
| 20260502210305 | 58 | 313 | 3.0 | 9.0 | 0.00 | 0.00 | 0.00 | 43 | 1011.2 |
| 20260502200805 | 56 | 280 | 3.0 | 8.0 | 0.00 | 0.00 | 0.00 | 44 | 1011.4 |
| 20260502190805 | 54 | 300 | 2.0 | 8.0 | 0.00 | 0.00 | 0.00 | 47 | 1011.1 |
| 20260502190307 | 54 | 303 | 2.0 | 8.0 | 0.00 | 0.00 | 0.00 | 47 | 1011.2 |
| 20260502180804 | 54 | 289 | 2.0 | 3.0 | 0.00 | 0.00 | 0.00 | 50 | 1010.7 |
| 20260502180305 | 53 | 309 | 2.0 | 7.0 | 0.00 | 0.00 | 0.00 | 51 | 1010.8 |
| 20260502170306 | 51 | 280 | 4.0 | 9.0 | 0.00 | 0.00 | 0.00 | 62 | 1010.0 |
| 20260502160804 | 47 | 339 | 2.0 | 6.0 | 0.00 | 0.00 | 0.00 | 68 | 1009.3 |
| 20260502160305 | 47 | 7 | 3.0 | 8.0 | 0.00 | 0.00 | 0.00 | 68 | 1009.2 |
| 20260502150804 | 43 | 288 | 3.0 | 8.0 | 0.00 | 0.00 | 0.00 | 72 | 1008.4 |
| 20260502150305 | 43 | 278 | 5.0 | 12.0 | 0.00 | 0.00 | 0.00 | 72 | 1008.5 |
| 20260502130305 | 40 | 357 | 3.0 | 12.0 | 0.00 | 0.00 | 0.00 | 76 | 1008.1 |
| 20260502120805 | 40 | 326 | 4.0 | 7.0 | 0.00 | 0.00 | 0.00 | 76 | 1007.9 |
| 20260502110804 | 41 | 290 | 5.0 | 8.0 | 0.00 | 0.00 | 0.00 | 73 | 1008.1 |
| 20260502110305 | 41 | 6 | 4.0 | 10.0 | 0.00 | 0.00 | 0.00 | 74 | 1008.2 |
| 20260502100805 | 41 | 8 | 5.0 | 7.0 | 0.00 | 0.00 | 0.00 | 71 | 1008.8 |
| 20260502100304 | 41 | 294 | 6.0 | 12.0 | 0.00 | 0.00 | 0.00 | 70 | 1008.6 |
| 20260502090805 | 41 | 296 | 5.0 | 9.0 | 0.00 | 0.00 | 0.00 | 67 | 1008.8 |
| 20260502090305 | 41 | 286 | 6.0 | 10.0 | 0.00 | 0.00 | 0.00 | 66 | 1008.8 |